Date,TemperatureHighF,TemperatureAvgF,TemperatureLowF,DewpointHighF,DewpointAvgF,DewpointLowF,HumidityHigh,HumidityAvg,HumidityLow,PressureMaxIn,PressureMinIn,WindSpeedMaxMPH,WindSpeedAvgMPH,GustSpeedMaxMPH,PrecipitationSumIn
2013-10-1,80,80,80,75,75,75,86,86,86,29.97,29.88,0,0,0,0.00
2013-10-2,80,80,80,75,75,75,86,86,86,29.98,29.91,0,0,0,0.00
2013-10-3,80,80,80,75,75,75,86,86,86,29.99,29.89,0,0,0,0.00
2013-10-4,80,80,80,75,75,75,86,86,86,30.00,29.92,0,0,0,0.00
2013-10-5,80,80,80,78,75,75,91,86,86,29.97,29.88,4,0,0,0.00
2013-10-6,90,82,77,80,77,74,97,84,68,29.89,29.80,6,1,0,0.00
2013-10-7,85,82,76,80,78,76,100,88,77,29.79,29.70,7,2,0,0.00
2013-10-8,87,83,76,79,77,75,100,84,67,29.83,29.71,12,3,0,0.00
2013-10-9,85,78,74,77,75,73,100,93,76,29.92,29.80,8,2,0,0.00
2013-10-10,86,78,71,77,73,68,100,84,66,29.96,29.88,7,1,0,0.00
2013-10-11,89,78,69,74,70,66,100,78,53,29.95,29.86,3,0,0,0.00
2013-10-12,89,79,72,75,72,67,99,79,61,29.95,29.88,3,0,0,0.00
2013-10-13,88,79,71,73,70,67,97,76,51,29.99,29.90,6,1,0,0.00
2013-10-14,86,78,72,76,74,69,100,87,66,29.94,29.85,6,1,0,0.00
2013-10-15,74,73,73,74,73,73,100,100,100,29.89,29.80,6,0,0,0.00
2013-10-16,73,73,73,73,73,73,100,100,100,29.88,29.81,0,0,0,0.00
2013-10-17,89,79,72,79,76,72,100,90,70,29.89,29.82,3,0,0,0.00
2013-10-18,87,80,75,81,78,75,100,91,75,29.91,29.83,8,1,0,0.00
2013-10-19,87,80,79,81,79,76,100,96,82,29.88,29.79,6,1,0,0.00
2013-10-20,81,81,81,80,80,80,97,97,97,29.88,29.78,0,0,0,0.00
2013-10-21,81,81,81,80,80,80,97,97,97,29.91,29.82,0,0,0,0.00
2013-10-22,81,81,81,80,80,80,97,97,97,29.87,29.72,0,0,0,0.00
2013-10-23,81,80,73,80,75,63,97,86,71,29.90,29.71,5,0,0,0.00
2013-10-24,77,72,69,68,64,60,97,77,65,30.05,29.89,9,2,0,0.00
2013-10-25,81,73,67,70,67,63,100,83,65,30.12,30.03,7,2,0,0.00
2013-10-26,82,73,67,66,64,61,89,73,51,30.10,30.00,3,0,0,0.00
2013-10-27,81,72,64,67,66,64,100,81,59,30.03,29.97,5,1,0,0.00
2013-10-28,85,76,68,72,69,67,100,81,63,30.09,29.99,4,1,0,0.00
2013-10-29,88,78,70,74,72,69,100,82,60,30.12,30.04,6,1,0,0.00
2013-10-30,87,80,77,74,73,72,87,79,64,30.14,30.03,3,0,0,0.00
2013-10-31,80,80,80,72,72,72,76,76,76,30.05,29.92,0,0,0,0.00